Skip Page Navigation
NASA JPL Caltech
NASA Logo - Jet Propulsion Laboratory + View the NASA Portal
+ Center for Near-Earth Object Studies
JPL Home Earth Solar System Stars & Galaxies Technology
JPL Solar System Dynamics
BODIES ORBITS EPHEMERIDES TOOLS PHYSICAL DATA DISCOVERY FAQ SITE MAP
IMPORTANT: The SSD Announcement email list is now available. Major changes are coming in the near future, including possible hostname and/or URL changes. To be notified of such changes, subscribe to this email list.

Please visit this page for more details.


JPL Small-Body Database Browser
Search: [ help ]  
324314 (2006 DF196)
Classification: Main-belt Asteroid          SPK-ID: 2324314
Ephemeris | Orbit Diagram | Orbital Elements | Mission Design | Physical Parameters | Discovery Circumstances | Close-Approach Data ]

[ show orbit diagram ]
Orbital Elements at Epoch 2458600.5 (2019-Apr-27.0) TDB
Reference: JPL 14 (heliocentric ecliptic J2000)
 Element Value Uncertainty (1-sigma)   Units 
e .1890542640120018 3.7737e-08  
a 3.071166434187182 4.6945e-08 au
q 2.490549324313561 1.166e-07 au
i 12.46763929084451 5.712e-06 deg
node 181.4001803394738 2.3604e-05 deg
peri 290.2820906997978 2.9521e-05 deg
M 183.1951843110717 1.7622e-05 deg
tp 2459565.983919494739
(2021-Dec-17.48391949)
0.00010717 TDB
period 1965.863936815108
5.38
4.5075e-05
1.234e-07
d
yr
n .1831255934137717 4.1988e-09 deg/d
Q 3.651783544060804 5.582e-08 au
  Orbit Determination Parameters
   # obs. used (total)      276  
   data-arc span      6714 days (18.38 yr)  
   first obs. used      2001-04-16  
   last obs. used      2019-09-03  
   planetary ephem.      DE431  
   SB-pert. ephem.      SB431-N16  
   condition code      0  
   norm. resid. RMS      .60868  
   source      ORB  
   producer      Otto Matic  
   solution date      2019-Sep-24 06:13:12  

Additional Information
 Earth MOID = 1.53953 au 
 Jupiter MOID = 1.6302 au 
 T_jup = 3.167 
[ show covariance matrix ]

Ephemeris | Orbit Diagram | Orbital Elements | Mission Design | Physical Parameters | Discovery Circumstances | Close-Approach Data ]

Physical Parameter Table
Parameter Symbol Value Units Sigma Reference Notes
absolute magnitude H 15.9   n/a MPO450271  

324314 (2006 DF196)          Discovered 2006-Feb-22 by CSS at Catalina
Reference: 20120406/Numbers.arcLast Updated: 2012-04-09

[ show close-approach data ]
Ephemeris | Orbit Diagram | Orbital Elements | Mission Design | Physical Parameters | Discovery Circumstances | Close-Approach Data ]
ABOUT SSD CREDITS/AWARDS PRIVACY/COPYRIGHT GLOSSARY LINKS
FirstGov 2019-Oct-19 03:23 UT
(server date/time)  
NASA Home Page
Site Manager:   Ryan S. Park
Webmaster  Alan B. Chamberlin